Time,TemperatureF,DewpointF,PressureIn,WindDirection,WindDirectionDegrees,WindSpeedMPH,WindSpeedGustMPH,Humidity,HourlyPrecipIn,Conditions,Clouds,dailyrainin,SolarRadiationWatts/m^2,SoftwareType,DateUTC
2013-06-13 00:00:00,73.8,73.4,30.06,South,180,0.0,1.6,99,0.00,,,-99.99,884.0,meteobridge,2013-06-13 04:00:00,
2013-06-13 00:01:00,73.8,73.4,30.06,South,180,0.0,1.6,99,0.00,,,0.00,884.0,meteobridge,2013-06-13 04:01:00,
2013-06-13 00:02:00,73.9,73.6,30.06,South,180,0.0,1.6,99,0.00,,,0.00,884.0,meteobridge,2013-06-13 04:02:00,
2013-06-13 00:04:00,73.9,73.6,30.06,SW,225,0.7,0.7,99,0.00,,,0.00,884.0,meteobridge,2013-06-13 04:04:00,
2013-06-13 00:09:00,73.8,73.4,30.06,West,270,0.0,0.0,99,0.00,,,0.00,921.0,meteobridge,2013-06-13 04:09:00,
2013-06-13 00:14:00,73.8,73.4,30.06,SW,225,0.0,0.0,99,0.00,,,0.00,921.0,meteobridge,2013-06-13 04:14:00,
2013-06-13 00:19:00,73.8,73.4,30.06,SW,225,0.7,0.7,99,0.00,,,0.00,921.0,meteobridge,2013-06-13 04:19:00,
2013-06-13 00:24:00,73.8,73.4,30.06,South,180,0.0,0.0,99,0.00,,,0.00,921.0,meteobridge,2013-06-13 04:24:00,
2013-06-13 00:30:00,73.8,73.4,30.06,SW,225,1.6,1.6,99,0.00,,,0.00,921.0,meteobridge,2013-06-13 04:30:00,
2013-06-13 00:35:00,73.6,73.2,30.06,South,180,1.6,1.6,99,0.00,,,0.00,921.0,meteobridge,2013-06-13 04:35:00,
2013-06-13 00:40:00,73.6,73.2,30.06,SW,225,1.6,2.2,99,0.00,,,0.00,921.0,meteobridge,2013-06-13 04:40:00,
2013-06-13 00:45:00,73.8,73.4,30.06,SW,225,2.2,2.2,99,0.00,,,0.00,921.0,meteobridge,2013-06-13 04:45:00,
2013-06-13 00:50:00,73.6,73.2,30.06,South,180,1.6,1.6,99,0.00,,,0.00,921.0,meteobridge,2013-06-13 04:50:00,
2013-06-13 00:55:00,73.4,73.0,30.06,SE,135,0.0,0.0,99,0.00,,,0.00,847.0,meteobridge,2013-06-13 04:55:00,
2013-06-13 01:01:00,73.6,73.2,30.06,South,180,0.7,0.7,99,0.00,,,0.00,847.0,meteobridge,2013-06-13 05:01:00,
2013-06-13 01:06:00,73.6,73.2,30.06,SE,135,1.6,1.6,99,0.00,,,0.00,737.0,meteobridge,2013-06-13 05:06:00,
2013-06-13 01:11:00,73.6,73.2,30.06,South,180,1.6,1.6,99,0.00,,,0.00,737.0,meteobridge,2013-06-13 05:11:00,
2013-06-13 01:16:00,73.6,73.2,30.06,South,180,1.6,2.2,99,0.00,,,0.00,591.0,meteobridge,2013-06-13 05:16:00,
2013-06-13 01:21:00,73.4,73.0,30.06,SE,135,2.2,2.2,99,0.00,,,0.00,591.0,meteobridge,2013-06-13 05:21:00,
2013-06-13 01:26:00,73.4,73.0,30.06,SW,225,1.6,1.6,99,0.00,,,0.00,554.0,meteobridge,2013-06-13 05:26:00,
2013-06-13 01:32:00,73.4,73.0,30.06,East,90,1.6,1.6,99,0.00,,,0.00,554.0,meteobridge,2013-06-13 05:32:00,
2013-06-13 01:37:00,73.6,73.2,30.05,South,180,0.7,0.7,99,0.00,,,0.00,518.0,meteobridge,2013-06-13 05:37:00,
2013-06-13 01:42:00,73.6,73.2,30.05,South,180,0.7,0.7,99,0.00,,,0.00,518.0,meteobridge,2013-06-13 05:42:00,
2013-06-13 01:47:00,73.6,73.2,30.05,South,180,1.6,1.6,99,0.00,,,0.00,518.0,meteobridge,2013-06-13 05:47:00,
2013-06-13 01:52:00,73.6,73.2,30.05,East,90,1.6,3.8,99,0.00,,,0.00,518.0,meteobridge,2013-06-13 05:52:00,
2013-06-13 01:58:00,73.4,73.0,30.05,SSE,158,3.1,3.1,99,0.00,,,0.00,518.0,meteobridge,2013-06-13 05:58:00,
2013-06-13 02:03:00,73.4,73.0,30.04,SW,225,2.2,2.2,99,0.00,,,0.00,518.0,meteobridge,2013-06-13 06:03:00,
2013-06-13 02:08:00,73.4,73.0,30.04,South,180,0.7,2.2,99,0.00,,,0.00,554.0,meteobridge,2013-06-13 06:08:00,
2013-06-13 02:13:00,73.4,73.0,30.04,SW,225,2.2,2.2,99,0.00,,,0.00,554.0,meteobridge,2013-06-13 06:13:00,
2013-06-13 02:18:00,73.4,73.0,30.04,South,180,2.2,2.2,99,0.00,,,0.00,554.0,meteobridge,2013-06-13 06:18:00,
2013-06-13 02:23:00,73.4,73.0,30.04,South,180,2.2,3.1,99,0.00,,,0.00,554.0,meteobridge,2013-06-13 06:23:00,
2013-06-13 02:29:00,73.2,72.9,30.03,West,270,1.6,2.2,99,0.00,,,0.00,554.0,meteobridge,2013-06-13 06:29:00,
2013-06-13 02:34:00,73.2,72.9,30.03,South,180,1.6,1.6,99,0.00,,,0.00,554.0,meteobridge,2013-06-13 06:34:00,
2013-06-13 02:39:00,73.2,72.9,30.03,South,180,1.6,1.6,99,0.00,,,0.00,554.0,meteobridge,2013-06-13 06:39:00,
2013-06-13 02:44:00,73.2,72.9,30.03,SSE,158,0.7,0.7,99,0.00,,,0.00,554.0,meteobridge,2013-06-13 06:44:00,
2013-06-13 02:49:00,73.2,72.9,30.03,SW,225,2.2,2.2,99,0.00,,,0.00,554.0,meteobridge,2013-06-13 06:49:00,
2013-06-13 02:54:00,73.4,73.0,30.02,South,180,1.6,1.6,99,0.00,,,0.00,554.0,meteobridge,2013-06-13 06:54:00,
2013-06-13 03:00:00,73.4,73.0,30.03,South,180,0.0,0.0,99,0.00,,,0.00,554.0,meteobridge,2013-06-13 07:00:00,
2013-06-13 03:05:00,73.2,72.9,30.02,SW,225,1.6,2.2,99,0.00,,,0.00,554.0,meteobridge,2013-06-13 07:05:00,
2013-06-13 03:10:00,73.4,73.0,30.03,SW,225,0.7,0.7,99,0.00,,,0.00,554.0,meteobridge,2013-06-13 07:10:00,
2013-06-13 03:15:00,73.4,73.0,30.03,South,180,0.7,1.6,99,0.00,,,0.00,518.0,meteobridge,2013-06-13 07:15:00,
2013-06-13 03:20:00,73.4,73.0,30.02,SW,225,1.6,1.6,99,0.00,,,0.00,518.0,meteobridge,2013-06-13 07:20:00,
2013-06-13 03:25:00,73.4,73.0,30.02,SW,225,0.0,0.7,99,0.00,,,0.00,518.0,meteobridge,2013-06-13 07:25:00,
2013-06-13 03:31:00,73.4,73.0,30.02,SW,225,1.6,1.6,99,0.00,,,0.00,518.0,meteobridge,2013-06-13 07:31:00,
2013-06-13 03:36:00,73.6,73.2,30.03,SW,225,0.0,0.0,99,0.00,,,0.00,518.0,meteobridge,2013-06-13 07:36:00,
2013-06-13 03:41:00,73.6,73.2,30.02,South,180,0.0,0.7,99,0.00,,,0.00,518.0,meteobridge,2013-06-13 07:41:00,
2013-06-13 03:46:00,73.6,73.2,30.02,SW,225,0.0,0.0,99,0.00,,,0.00,518.0,meteobridge,2013-06-13 07:46:00,
2013-06-13 03:51:00,73.6,73.2,30.02,SW,225,0.0,0.0,99,0.00,,,0.00,518.0,meteobridge,2013-06-13 07:51:00,
2013-06-13 03:56:00,73.6,73.2,30.02,SW,225,0.0,0.0,99,0.00,,,0.00,518.0,meteobridge,2013-06-13 07:56:00,
2013-06-13 04:02:00,73.6,73.2,30.03,SW,225,0.0,0.0,99,0.00,,,0.00,518.0,meteobridge,2013-06-13 08:02:00,
2013-06-13 04:07:00,73.6,73.2,30.03,SW,225,0.0,0.0,99,0.00,,,0.00,518.0,meteobridge,2013-06-13 08:07:00,
2013-06-13 04:12:00,73.8,73.4,30.02,South,180,0.0,0.7,99,0.00,,,0.00,518.0,meteobridge,2013-06-13 08:12:00,
2013-06-13 04:17:00,73.9,73.6,30.02,South,180,0.0,0.7,99,0.00,,,0.00,518.0,meteobridge,2013-06-13 08:17:00,
2013-06-13 04:22:00,73.9,73.6,30.02,South,180,0.0,0.7,99,0.00,,,0.00,518.0,meteobridge,2013-06-13 08:22:00,
2013-06-13 04:27:00,73.9,73.6,30.02,South,180,0.0,0.7,99,0.00,,,0.00,481.0,meteobridge,2013-06-13 08:27:00,
2013-06-13 04:33:00,73.9,73.6,30.02,South,180,0.0,0.0,99,0.00,,,0.00,481.0,meteobridge,2013-06-13 08:33:00,
2013-06-13 04:38:00,73.9,73.6,30.01,South,180,0.7,0.7,99,0.00,,,0.00,481.0,meteobridge,2013-06-13 08:38:00,
2013-06-13 04:43:00,74.1,73.8,30.01,South,180,1.6,1.6,99,0.00,,,0.00,481.0,meteobridge,2013-06-13 08:43:00,
2013-06-13 04:48:00,74.1,73.8,30.01,South,180,0.0,0.7,99,0.00,,,0.00,481.0,meteobridge,2013-06-13 08:48:00,
2013-06-13 04:53:00,74.1,73.8,30.01,South,180,0.7,0.7,99,0.00,,,0.00,481.0,meteobridge,2013-06-13 08:53:00,
2013-06-13 04:58:00,74.1,73.8,30.01,South,180,0.0,0.0,99,0.00,,,0.00,445.0,meteobridge,2013-06-13 08:58:00,
2013-06-13 05:04:00,74.1,73.8,30.01,South,180,0.7,0.7,99,0.00,,,0.00,445.0,meteobridge,2013-06-13 09:04:00,
2013-06-13 05:09:00,74.1,73.8,30.01,East,90,1.6,1.6,99,0.00,,,0.00,445.0,meteobridge,2013-06-13 09:09:00,
2013-06-13 05:14:00,74.3,73.9,30.01,South,180,1.6,1.6,99,0.00,,,0.00,445.0,meteobridge,2013-06-13 09:14:00,
2013-06-13 05:19:00,74.3,73.9,30.01,South,180,1.6,1.6,99,0.00,,,0.00,445.0,meteobridge,2013-06-13 09:19:00,
2013-06-13 05:24:00,74.3,73.9,30.01,East,90,2.2,3.1,99,0.00,,,0.00,408.0,meteobridge,2013-06-13 09:24:00,
2013-06-13 05:29:00,74.1,73.8,30.01,South,180,1.6,2.2,99,0.00,,,0.00,408.0,meteobridge,2013-06-13 09:29:00,
2013-06-13 05:35:00,74.1,73.8,30.01,South,180,1.6,1.6,99,0.00,,,0.00,408.0,meteobridge,2013-06-13 09:35:00,
2013-06-13 05:40:00,74.1,73.8,30.01,South,180,1.6,1.6,99,0.00,,,0.00,408.0,meteobridge,2013-06-13 09:40:00,
2013-06-13 05:45:00,74.1,73.8,30.01,SSE,158,0.7,2.2,99,0.00,,,0.00,408.0,meteobridge,2013-06-13 09:45:00,
2013-06-13 05:50:00,73.9,73.6,30.01,SE,135,0.0,0.7,99,0.00,,,0.00,408.0,meteobridge,2013-06-13 09:50:00,
2013-06-13 05:55:00,73.9,73.6,30.01,SSW,203,0.7,1.6,99,0.00,,,0.00,408.0,meteobridge,2013-06-13 09:55:00,
2013-06-13 06:00:00,73.8,73.4,30.01,South,180,0.7,0.7,99,0.00,,,0.00,408.0,meteobridge,2013-06-13 10:00:00,
2013-06-13 06:06:00,73.9,73.6,30.01,South,180,2.2,2.2,99,0.00,,,0.00,371.0,meteobridge,2013-06-13 10:06:00,
2013-06-13 06:11:00,73.8,73.4,30.01,South,180,0.7,1.6,99,0.00,,,0.00,371.0,meteobridge,2013-06-13 10:11:00,
2013-06-13 06:16:00,73.8,73.4,30.01,SW,225,1.6,1.6,99,0.00,,,0.00,371.0,meteobridge,2013-06-13 10:16:00,
2013-06-13 06:21:00,73.8,73.4,30.02,SW,225,0.0,0.0,99,0.00,,,0.00,371.0,meteobridge,2013-06-13 10:21:00,
2013-06-13 06:26:00,73.6,73.2,30.02,South,180,0.7,1.6,99,0.00,,,0.00,371.0,meteobridge,2013-06-13 10:26:00,
2013-06-13 06:31:00,73.6,73.2,30.02,South,180,0.0,0.0,99,0.00,,,0.00,371.0,meteobridge,2013-06-13 10:31:00,
2013-06-13 06:37:00,73.6,73.2,30.02,South,180,0.7,0.7,99,0.01,,,0.01,335.0,meteobridge,2013-06-13 10:37:00,
2013-06-13 06:42:00,73.6,73.2,30.02,South,180,0.0,0.7,99,0.01,,,0.01,335.0,meteobridge,2013-06-13 10:42:00,
2013-06-13 06:47:00,73.6,73.2,30.02,SE,135,0.0,0.0,99,0.01,,,0.01,335.0,meteobridge,2013-06-13 10:47:00,
2013-06-13 06:52:00,73.8,73.4,30.03,SE,135,0.0,0.7,99,0.01,,,0.01,335.0,meteobridge,2013-06-13 10:52:00,
2013-06-13 06:57:00,73.9,73.6,30.03,East,90,1.6,1.6,99,0.01,,,0.01,298.0,meteobridge,2013-06-13 10:57:00,
2013-06-13 07:02:00,73.9,73.6,30.02,East,90,0.0,0.0,99,0.01,,,0.01,298.0,meteobridge,2013-06-13 11:02:00,
2013-06-13 07:08:00,74.1,73.8,30.03,South,180,0.0,0.0,99,0.01,,,0.01,298.0,meteobridge,2013-06-13 11:08:00,
2013-06-13 07:13:00,74.1,73.8,30.03,East,90,1.6,1.6,99,0.01,,,0.01,298.0,meteobridge,2013-06-13 11:13:00,
2013-06-13 07:18:00,74.5,74.1,30.03,East,90,0.0,0.7,99,0.01,,,0.01,298.0,meteobridge,2013-06-13 11:18:00,
2013-06-13 07:23:00,74.8,74.5,30.03,East,90,0.7,1.6,99,0.01,,,0.01,298.0,meteobridge,2013-06-13 11:23:00,
2013-06-13 07:28:00,75.2,74.8,30.03,East,90,0.0,0.0,99,0.01,,,0.01,298.0,meteobridge,2013-06-13 11:28:00,
2013-06-13 07:34:00,75.6,75.2,30.04,SE,135,0.0,0.0,99,0.00,,,0.01,298.0,meteobridge,2013-06-13 11:34:00,
2013-06-13 07:39:00,75.9,75.6,30.03,East,90,0.7,1.6,99,0.00,,,0.01,262.0,meteobridge,2013-06-13 11:39:00,
2013-06-13 07:44:00,76.5,76.1,30.03,East,90,0.0,0.7,99,0.00,,,0.01,262.0,meteobridge,2013-06-13 11:44:00,
2013-06-13 07:49:00,77.0,76.6,30.04,SE,135,0.0,0.0,99,0.00,,,0.01,262.0,meteobridge,2013-06-13 11:49:00,
2013-06-13 07:54:00,77.4,77.0,30.03,South,180,0.7,1.6,99,0.00,,,0.01,262.0,meteobridge,2013-06-13 11:54:00,
2013-06-13 07:59:00,77.5,77.2,30.03,SE,135,1.6,1.6,99,0.00,,,0.01,225.0,meteobridge,2013-06-13 11:59:00,
2013-06-13 08:05:00,77.9,77.5,30.03,South,180,1.6,1.6,99,0.00,,,0.01,225.0,meteobridge,2013-06-13 12:05:00,
2013-06-13 08:10:00,78.3,77.9,30.03,South,180,0.7,0.7,99,0.00,,,0.01,225.0,meteobridge,2013-06-13 12:10:00,
2013-06-13 08:15:00,78.8,78.4,30.04,SW,225,0.0,0.0,99,0.00,,,0.01,225.0,meteobridge,2013-06-13 12:15:00,
2013-06-13 08:20:00,79.5,79.2,30.04,SW,225,0.0,0.0,99,0.00,,,0.01,225.0,meteobridge,2013-06-13 12:20:00,
2013-06-13 08:25:00,80.2,79.9,30.04,SW,225,0.0,0.0,99,0.00,,,0.01,225.0,meteobridge,2013-06-13 12:25:00,
2013-06-13 08:30:00,80.8,80.4,30.04,SW,225,0.7,0.7,99,0.00,,,0.01,225.0,meteobridge,2013-06-13 12:30:00,
2013-06-13 08:36:00,81.7,81.3,30.05,SW,225,2.2,2.2,99,0.00,,,0.01,188.0,meteobridge,2013-06-13 12:36:00,
2013-06-13 08:41:00,82.0,81.7,30.05,NW,315,1.6,2.2,99,0.00,,,0.01,188.0,meteobridge,2013-06-13 12:41:00,
2013-06-13 08:46:00,82.9,82.6,30.05,West,270,1.6,2.2,99,0.00,,,0.01,188.0,meteobridge,2013-06-13 12:46:00,
2013-06-13 08:51:00,83.5,83.1,30.06,West,270,3.1,3.8,99,0.00,,,0.01,188.0,meteobridge,2013-06-13 12:51:00,
2013-06-13 08:56:00,84.0,83.7,30.06,WSW,248,2.2,3.1,99,0.00,,,0.01,188.0,meteobridge,2013-06-13 12:56:00,
2013-06-13 09:01:00,84.6,84.2,30.06,North,0,3.1,3.1,99,0.00,,,0.01,188.0,meteobridge,2013-06-13 13:01:00,
2013-06-13 09:06:00,84.9,83.7,30.06,West,270,1.6,2.2,96,0.00,,,0.01,152.0,meteobridge,2013-06-13 13:06:00,
2013-06-13 09:11:00,85.5,83.5,30.06,NW,315,2.2,3.8,94,0.00,,,0.01,152.0,meteobridge,2013-06-13 13:11:00,
2013-06-13 09:17:00,86.2,84.6,30.06,West,270,3.1,3.1,95,0.00,,,0.01,152.0,meteobridge,2013-06-13 13:17:00,
2013-06-13 09:22:00,86.7,83.8,30.06,NW,315,3.8,3.8,91,0.00,,,0.01,152.0,meteobridge,2013-06-13 13:22:00,
2013-06-13 09:27:00,86.9,82.2,30.06,West,270,4.5,4.5,86,0.00,,,0.01,152.0,meteobridge,2013-06-13 13:27:00,
2013-06-13 09:32:00,87.3,81.9,30.06,NW,315,3.1,3.1,84,0.00,,,0.01,152.0,meteobridge,2013-06-13 13:32:00,
2013-06-13 09:37:00,87.6,82.2,30.06,West,270,2.2,3.1,84,0.00,,,0.01,115.0,meteobridge,2013-06-13 13:37:00,
2013-06-13 09:42:00,87.6,81.5,30.06,SW,225,0.7,2.2,82,0.00,,,0.01,115.0,meteobridge,2013-06-13 13:42:00,
2013-06-13 09:48:00,87.6,82.2,30.06,North,0,0.7,3.1,84,0.00,,,0.01,115.0,meteobridge,2013-06-13 13:48:00,
2013-06-13 09:53:00,87.4,81.3,30.06,NW,315,1.6,4.5,82,0.00,,,0.01,115.0,meteobridge,2013-06-13 13:53:00,
2013-06-13 09:58:00,87.1,81.3,30.06,West,270,3.1,3.8,83,0.00,,,0.01,115.0,meteobridge,2013-06-13 13:58:00,
2013-06-13 10:03:00,87.4,81.3,30.06,West,270,2.2,3.1,82,0.00,,,0.01,115.0,meteobridge,2013-06-13 14:03:00,
2013-06-13 10:08:00,88.0,80.6,30.06,West,270,3.1,3.8,79,0.00,,,0.01,115.0,meteobridge,2013-06-13 14:08:00,
2013-06-13 10:14:00,88.2,81.1,30.06,West,270,2.2,4.5,80,0.00,,,0.01,115.0,meteobridge,2013-06-13 14:14:00,
2013-06-13 10:19:00,87.4,81.0,30.06,South,180,4.5,4.5,81,0.00,,,0.01,115.0,meteobridge,2013-06-13 14:19:00,
2013-06-13 10:24:00,86.9,81.1,30.06,NE,45,2.2,3.1,83,0.00,,,0.01,115.0,meteobridge,2013-06-13 14:24:00,
2013-06-13 10:29:00,86.2,80.1,30.06,South,180,3.1,3.8,82,0.00,,,0.01,78.0,meteobridge,2013-06-13 14:29:00,
2013-06-13 10:34:00,87.1,81.0,30.06,NW,315,3.1,4.5,82,0.00,,,0.01,78.0,meteobridge,2013-06-13 14:34:00,
2013-06-13 10:39:00,88.3,79.3,30.06,SSW,203,6.9,6.9,75,0.00,,,0.01,78.0,meteobridge,2013-06-13 14:39:00,
2013-06-13 10:45:00,89.2,79.0,30.06,NW,315,3.1,6.0,72,0.00,,,0.01,78.0,meteobridge,2013-06-13 14:45:00,
2013-06-13 10:50:00,89.8,79.9,30.06,North,0,3.8,6.0,73,0.00,,,0.01,78.0,meteobridge,2013-06-13 14:50:00,
2013-06-13 10:55:00,90.9,80.1,30.06,North,0,4.5,4.5,71,0.00,,,0.01,78.0,meteobridge,2013-06-13 14:55:00,
2013-06-13 11:00:00,90.0,78.8,30.06,SSW,203,3.1,3.8,70,0.00,,,0.01,78.0,meteobridge,2013-06-13 15:00:00,
2013-06-13 11:05:00,89.1,78.8,30.06,East,90,2.2,3.1,72,0.00,,,0.01,78.0,meteobridge,2013-06-13 15:05:00,
2013-06-13 11:10:00,89.6,80.2,30.06,SW,225,2.2,3.1,74,0.00,,,0.01,78.0,meteobridge,2013-06-13 15:10:00,
2013-06-13 11:16:00,90.9,79.7,30.05,North,0,2.2,3.8,70,0.00,,,0.01,79.0,meteobridge,2013-06-13 15:16:00,
2013-06-13 11:21:00,91.6,80.8,30.06,West,270,3.8,3.8,71,0.00,,,0.01,79.0,meteobridge,2013-06-13 15:21:00,
2013-06-13 11:26:00,90.9,78.8,30.06,SW,225,3.8,4.5,68,0.00,,,0.01,115.0,meteobridge,2013-06-13 15:26:00,
2013-06-13 11:31:00,90.1,78.6,30.06,NW,315,4.5,4.5,69,0.00,,,0.01,115.0,meteobridge,2013-06-13 15:31:00,
2013-06-13 11:36:00,90.0,77.9,30.05,West,270,4.5,4.5,68,0.00,,,0.01,152.0,meteobridge,2013-06-13 15:36:00,
2013-06-13 11:41:00,89.6,78.1,30.05,NW,315,4.5,4.5,69,0.00,,,0.01,152.0,meteobridge,2013-06-13 15:41:00,
2013-06-13 11:47:00,89.8,77.7,30.06,NW,315,4.5,4.5,68,0.00,,,0.01,188.0,meteobridge,2013-06-13 15:47:00,
2013-06-13 11:52:00,90.5,78.4,30.05,NW,315,3.1,4.5,68,0.00,,,0.01,188.0,meteobridge,2013-06-13 15:52:00,
2013-06-13 11:57:00,90.7,78.6,30.05,West,270,3.1,6.0,68,0.00,,,0.01,188.0,meteobridge,2013-06-13 15:57:00,
2013-06-13 12:02:00,90.9,78.8,30.05,NW,315,3.1,3.1,68,0.00,,,0.01,188.0,meteobridge,2013-06-13 16:02:00,
2013-06-13 12:07:00,91.8,78.3,30.05,West,270,6.0,6.0,65,0.00,,,0.01,225.0,meteobridge,2013-06-13 16:07:00,
2013-06-13 12:12:00,91.9,78.1,30.05,SW,225,3.8,3.8,64,0.00,,,0.01,225.0,meteobridge,2013-06-13 16:12:00,
2013-06-13 12:18:00,92.1,78.3,30.05,North,0,5.4,6.9,64,0.00,,,0.01,225.0,meteobridge,2013-06-13 16:18:00,
2013-06-13 12:23:00,93.0,76.1,30.05,SW,225,5.4,6.0,58,0.00,,,0.01,225.0,meteobridge,2013-06-13 16:23:00,
2013-06-13 12:28:00,93.4,77.4,30.05,NW,315,5.4,6.9,60,0.00,,,0.01,262.0,meteobridge,2013-06-13 16:28:00,
2013-06-13 12:33:00,93.2,76.3,30.05,West,270,4.5,4.5,58,0.00,,,0.01,262.0,meteobridge,2013-06-13 16:33:00,
2013-06-13 12:38:00,92.8,77.9,30.05,WNW,293,3.8,6.0,62,0.00,,,0.01,262.0,meteobridge,2013-06-13 16:38:00,
2013-06-13 12:43:00,93.4,76.8,30.05,SW,225,4.5,6.9,59,0.00,,,0.01,262.0,meteobridge,2013-06-13 16:43:00,
2013-06-13 12:49:00,93.0,76.6,30.04,NW,315,4.5,5.4,59,0.00,,,0.01,298.0,meteobridge,2013-06-13 16:49:00,
2013-06-13 12:54:00,91.6,75.7,30.04,East,90,3.8,5.4,60,0.00,,,0.01,298.0,meteobridge,2013-06-13 16:54:00,
2013-06-13 12:59:00,91.0,76.6,30.04,North,0,2.2,5.4,63,0.00,,,0.01,298.0,meteobridge,2013-06-13 16:59:00,
2013-06-13 13:04:00,90.5,75.7,30.04,NNW,338,4.5,6.0,62,0.00,,,0.01,298.0,meteobridge,2013-06-13 17:04:00,
2013-06-13 13:09:00,90.9,77.9,30.04,NW,315,6.0,6.9,66,0.00,,,0.01,298.0,meteobridge,2013-06-13 17:09:00,
2013-06-13 13:14:00,91.9,76.6,30.04,North,0,1.6,5.4,61,0.00,,,0.01,298.0,meteobridge,2013-06-13 17:14:00,
2013-06-13 13:20:00,92.1,75.7,30.04,North,0,5.4,6.9,59,0.00,,,0.01,335.0,meteobridge,2013-06-13 17:20:00,
2013-06-13 13:25:00,92.5,78.4,30.04,West,270,3.1,3.8,64,0.00,,,0.01,335.0,meteobridge,2013-06-13 17:25:00,
2013-06-13 13:30:00,93.0,76.1,30.03,North,0,5.4,5.4,58,0.00,,,0.01,335.0,meteobridge,2013-06-13 17:30:00,
2013-06-13 13:35:00,93.0,76.6,30.03,NW,315,6.0,6.0,59,0.00,,,0.01,371.0,meteobridge,2013-06-13 17:35:00,
2013-06-13 13:40:00,93.2,75.7,30.03,NW,315,8.3,8.3,57,0.00,,,0.01,371.0,meteobridge,2013-06-13 17:40:00,
2013-06-13 13:45:00,93.4,75.9,30.03,NE,45,2.2,2.2,57,0.00,,,0.01,371.0,meteobridge,2013-06-13 17:45:00,
2013-06-13 13:51:00,93.2,74.7,30.03,WNW,293,8.3,8.3,55,0.00,,,0.01,371.0,meteobridge,2013-06-13 17:51:00,
2013-06-13 13:56:00,93.2,74.7,30.03,NW,315,6.0,6.9,55,0.00,,,0.01,408.0,meteobridge,2013-06-13 17:56:00,
2013-06-13 14:01:00,93.4,75.9,30.02,WNW,293,3.1,3.8,57,0.00,,,0.01,408.0,meteobridge,2013-06-13 18:01:00,
2013-06-13 14:06:00,93.6,74.5,30.02,West,270,6.9,6.9,54,0.00,,,0.01,408.0,meteobridge,2013-06-13 18:06:00,
2013-06-13 14:11:00,93.7,74.7,30.02,West,270,4.5,5.4,54,0.00,,,0.01,408.0,meteobridge,2013-06-13 18:11:00,
2013-06-13 14:16:00,93.7,73.9,30.02,West,270,6.0,6.9,53,0.00,,,0.01,408.0,meteobridge,2013-06-13 18:16:00,
2013-06-13 14:22:00,94.1,75.9,30.01,NW,315,6.0,6.0,56,0.00,,,0.01,408.0,meteobridge,2013-06-13 18:22:00,
2013-06-13 14:27:00,94.3,73.4,30.01,NE,45,7.6,7.6,51,0.00,,,0.01,445.0,meteobridge,2013-06-13 18:27:00,
2013-06-13 14:32:00,93.6,74.5,30.01,SW,225,7.6,7.6,54,0.00,,,0.01,445.0,meteobridge,2013-06-13 18:32:00,
2013-06-13 14:37:00,93.7,76.6,30.00,North,0,3.8,6.9,58,0.00,,,0.01,481.0,meteobridge,2013-06-13 18:37:00,
2013-06-13 14:42:00,93.9,74.7,30.00,NW,315,8.3,8.3,54,0.00,,,0.01,481.0,meteobridge,2013-06-13 18:42:00,
2013-06-13 14:47:00,93.7,75.7,30.00,North,0,5.4,5.4,56,0.00,,,0.01,481.0,meteobridge,2013-06-13 18:47:00,
2013-06-13 14:53:00,93.7,76.3,29.99,SW,225,5.4,6.9,57,0.00,,,0.01,481.0,meteobridge,2013-06-13 18:53:00,
2013-06-13 14:58:00,93.7,75.7,29.99,NNW,338,5.4,6.9,56,0.00,,,0.01,518.0,meteobridge,2013-06-13 18:58:00,
2013-06-13 15:03:00,93.9,74.1,29.99,NW,315,9.2,9.2,53,0.00,,,0.01,518.0,meteobridge,2013-06-13 19:03:00,
2013-06-13 15:08:00,93.9,74.7,29.99,West,270,3.8,6.0,54,0.00,,,0.01,481.0,meteobridge,2013-06-13 19:08:00,
2013-06-13 15:13:00,93.9,74.1,29.98,South,180,3.1,6.9,53,0.00,,,0.01,481.0,meteobridge,2013-06-13 19:13:00,
2013-06-13 15:18:00,93.9,74.7,29.98,West,270,5.4,5.4,54,0.00,,,0.01,445.0,meteobridge,2013-06-13 19:18:00,
2013-06-13 15:24:00,94.5,75.7,29.98,NW,315,5.4,5.4,55,0.00,,,0.01,445.0,meteobridge,2013-06-13 19:24:00,
2013-06-13 15:29:00,94.6,74.8,29.98,East,90,3.1,6.0,53,0.00,,,0.01,371.0,meteobridge,2013-06-13 19:29:00,
2013-06-13 15:34:00,95.0,73.9,29.98,South,180,7.6,7.6,51,0.00,,,0.01,371.0,meteobridge,2013-06-13 19:34:00,
2013-06-13 15:39:00,95.0,75.2,29.98,NE,45,3.8,6.0,53,0.00,,,0.01,298.0,meteobridge,2013-06-13 19:39:00,
2013-06-13 15:44:00,95.2,74.1,29.98,West,270,3.1,6.0,51,0.00,,,0.01,298.0,meteobridge,2013-06-13 19:44:00,
2013-06-13 15:49:00,95.0,73.4,29.99,NW,315,6.9,9.8,50,0.00,,,0.01,225.0,meteobridge,2013-06-13 19:49:00,
2013-06-13 15:55:00,94.5,73.6,29.98,NW,315,7.6,7.6,51,0.00,,,0.01,225.0,meteobridge,2013-06-13 19:55:00,
2013-06-13 16:00:00,94.1,74.3,29.98,NW,315,3.8,6.0,53,0.00,,,0.01,152.0,meteobridge,2013-06-13 20:00:00,
2013-06-13 16:05:00,93.9,73.0,29.98,North,0,6.9,6.9,51,0.00,,,0.01,152.0,meteobridge,2013-06-13 20:05:00,
2013-06-13 16:10:00,93.2,72.3,29.98,North,0,5.4,6.0,51,0.00,,,0.01,152.0,meteobridge,2013-06-13 20:10:00,
2013-06-13 16:15:00,93.0,72.9,29.98,NW,315,5.4,5.4,52,0.00,,,0.01,188.0,meteobridge,2013-06-13 20:15:00,
2013-06-13 16:20:00,92.3,71.6,29.99,NW,315,2.2,6.9,51,0.00,,,0.01,188.0,meteobridge,2013-06-13 20:20:00,
2013-06-13 16:26:00,91.6,72.0,29.99,West,270,3.1,4.5,53,0.00,,,0.01,188.0,meteobridge,2013-06-13 20:26:00,
2013-06-13 16:31:00,90.7,72.3,29.99,NW,315,3.1,3.8,55,0.00,,,0.01,188.0,meteobridge,2013-06-13 20:31:00,
2013-06-13 16:36:00,90.3,72.0,29.99,NW,315,5.4,5.4,55,0.00,,,0.01,262.0,meteobridge,2013-06-13 20:36:00,
2013-06-13 16:41:00,89.8,73.0,29.99,NW,315,3.1,3.1,58,0.00,,,0.01,262.0,meteobridge,2013-06-13 20:41:00,
2013-06-13 16:46:00,89.6,72.3,29.99,SE,135,2.2,6.0,57,0.00,,,0.01,298.0,meteobridge,2013-06-13 20:46:00,
2013-06-13 16:52:00,89.2,73.0,29.98,NW,315,2.2,4.5,59,0.00,,,0.01,298.0,meteobridge,2013-06-13 20:52:00,
2013-06-13 16:57:00,89.1,72.3,29.98,NW,315,5.4,5.4,58,0.00,,,0.01,335.0,meteobridge,2013-06-13 20:57:00,
2013-06-13 17:02:00,88.9,72.7,29.98,NW,315,4.5,4.5,59,0.00,,,0.01,335.0,meteobridge,2013-06-13 21:02:00,
2013-06-13 17:07:00,88.7,73.6,29.98,NW,315,2.2,3.1,61,0.00,,,0.01,298.0,meteobridge,2013-06-13 21:07:00,
2013-06-13 17:12:00,88.5,74.3,29.97,West,270,6.0,6.0,63,0.00,,,0.01,298.0,meteobridge,2013-06-13 21:12:00,
2013-06-13 17:17:00,88.2,74.8,29.97,SW,225,6.0,6.0,65,0.00,,,0.01,262.0,meteobridge,2013-06-13 21:17:00,
2013-06-13 17:23:00,87.6,75.4,29.97,SW,225,3.8,6.0,67,0.00,,,0.01,262.0,meteobridge,2013-06-13 21:23:00,
2013-06-13 17:28:00,87.3,75.9,29.98,NW,315,5.4,6.0,69,0.00,,,0.01,225.0,meteobridge,2013-06-13 21:28:00,
2013-06-13 17:33:00,87.4,76.5,29.98,NW,315,6.0,6.0,70,0.00,,,0.01,225.0,meteobridge,2013-06-13 21:33:00,
2013-06-13 17:38:00,87.3,76.3,29.98,West,270,4.5,4.5,70,0.00,,,0.01,188.0,meteobridge,2013-06-13 21:38:00,
2013-06-13 17:43:00,87.3,76.3,29.98,NW,315,4.5,8.3,70,0.00,,,0.01,188.0,meteobridge,2013-06-13 21:43:00,
2013-06-13 17:48:00,86.9,76.3,29.98,SW,225,2.2,4.5,71,0.00,,,0.01,152.0,meteobridge,2013-06-13 21:48:00,
2013-06-13 17:54:00,86.7,76.6,29.98,SSE,158,2.2,3.8,72,0.00,,,0.01,152.0,meteobridge,2013-06-13 21:54:00,
2013-06-13 17:59:00,86.4,76.3,29.97,SW,225,5.4,5.4,72,0.00,,,0.01,152.0,meteobridge,2013-06-13 21:59:00,
2013-06-13 18:04:00,86.5,76.8,29.96,NW,315,7.6,7.6,73,0.00,,,0.01,152.0,meteobridge,2013-06-13 22:04:00,
2013-06-13 18:09:00,86.5,76.5,29.96,NW,315,3.1,6.0,72,0.00,,,0.01,188.0,meteobridge,2013-06-13 22:09:00,
2013-06-13 18:14:00,86.5,76.5,29.96,West,270,4.5,5.4,72,0.00,,,0.01,188.0,meteobridge,2013-06-13 22:14:00,
2013-06-13 18:19:00,86.2,76.1,29.96,West,270,4.5,5.4,72,0.00,,,0.01,225.0,meteobridge,2013-06-13 22:19:00,
2013-06-13 18:25:00,86.2,75.7,29.96,NW,315,5.4,7.6,71,0.00,,,0.01,225.0,meteobridge,2013-06-13 22:25:00,
2013-06-13 18:30:00,86.0,76.3,29.96,NW,315,4.5,6.0,73,0.00,,,0.01,262.0,meteobridge,2013-06-13 22:30:00,
2013-06-13 18:35:00,86.0,76.3,29.94,NW,315,4.5,6.9,73,0.00,,,0.01,298.0,meteobridge,2013-06-13 22:35:00,
2013-06-13 18:40:00,85.8,76.1,29.94,WNW,293,6.0,6.9,73,0.00,,,0.01,298.0,meteobridge,2013-06-13 22:40:00,
2013-06-13 18:45:00,85.6,76.8,29.94,South,180,6.0,6.0,75,0.00,,,0.01,298.0,meteobridge,2013-06-13 22:45:00,
2013-06-13 18:50:00,85.6,76.8,29.94,SSW,203,6.0,7.6,75,0.00,,,0.01,298.0,meteobridge,2013-06-13 22:50:00,
2013-06-13 18:56:00,85.5,77.0,29.94,West,270,7.6,7.6,76,0.00,,,0.01,298.0,meteobridge,2013-06-13 22:56:00,
2013-06-13 19:01:00,85.3,77.2,29.94,NW,315,8.3,8.3,77,0.00,,,0.01,298.0,meteobridge,2013-06-13 23:01:00,
2013-06-13 19:06:00,85.1,76.6,29.93,SE,135,6.9,9.8,76,0.00,,,0.01,262.0,meteobridge,2013-06-13 23:06:00,
2013-06-13 19:11:00,84.9,76.8,29.93,SW,225,6.0,10.7,77,0.00,,,0.01,262.0,meteobridge,2013-06-13 23:11:00,
2013-06-13 19:16:00,84.7,76.6,29.93,NW,315,3.1,3.8,77,0.00,,,0.01,225.0,meteobridge,2013-06-13 23:16:00,
2013-06-13 19:21:00,84.6,77.0,29.93,South,180,9.8,9.8,78,0.00,,,0.01,225.0,meteobridge,2013-06-13 23:21:00,
2013-06-13 19:27:00,84.4,76.8,29.94,West,270,5.4,7.6,78,0.00,,,0.01,188.0,meteobridge,2013-06-13 23:27:00,
2013-06-13 19:32:00,84.4,77.2,29.94,South,180,3.8,3.8,79,0.00,,,0.01,188.0,meteobridge,2013-06-13 23:32:00,
2013-06-13 19:37:00,84.4,77.2,29.94,SW,225,3.1,3.1,79,0.00,,,0.01,152.0,meteobridge,2013-06-13 23:37:00,
2013-06-13 19:42:00,84.0,77.2,29.94,South,180,1.6,3.8,80,0.00,,,0.01,152.0,meteobridge,2013-06-13 23:42:00,
2013-06-13 19:47:00,83.8,77.4,29.94,South,180,3.1,5.4,81,0.00,,,0.01,188.0,meteobridge,2013-06-13 23:47:00,
2013-06-13 19:52:00,83.7,77.2,29.94,NW,315,2.2,2.2,81,0.00,,,0.01,188.0,meteobridge,2013-06-13 23:52:00,
2013-06-13 19:58:00,83.5,77.4,29.95,West,270,4.5,6.0,82,0.00,,,0.01,225.0,meteobridge,2013-06-13 23:58:00,
2013-06-13 20:03:00,83.3,77.5,29.95,West,270,3.1,3.1,83,0.00,,,0.01,225.0,meteobridge,2013-06-14 00:03:00,
2013-06-13 20:08:00,83.1,77.7,29.94,SW,225,3.8,3.8,84,0.00,,,0.01,262.0,meteobridge,2013-06-14 00:08:00,
2013-06-13 20:13:00,82.9,77.5,29.95,SW,225,2.2,2.2,84,0.00,,,0.01,262.0,meteobridge,2013-06-14 00:13:00,
2013-06-13 20:18:00,82.8,77.7,29.95,SW,225,3.8,4.5,85,0.00,,,0.01,298.0,meteobridge,2013-06-14 00:18:00,
2013-06-13 20:23:00,82.4,77.7,29.94,NW,315,0.7,3.1,86,0.00,,,0.01,298.0,meteobridge,2013-06-14 00:23:00,
2013-06-13 20:29:00,82.2,77.9,29.94,SW,225,1.6,5.4,87,0.00,,,0.01,298.0,meteobridge,2013-06-14 00:29:00,
2013-06-13 20:34:00,82.0,78.1,29.95,SW,225,1.6,1.6,88,0.00,,,0.01,298.0,meteobridge,2013-06-14 00:34:00,
2013-06-13 20:39:00,81.9,77.9,29.95,West,270,4.5,4.5,88,0.00,,,0.01,261.0,meteobridge,2013-06-14 00:39:00,
2013-06-13 20:44:00,81.5,77.9,29.94,South,180,2.2,6.0,89,0.00,,,0.01,261.0,meteobridge,2013-06-14 00:44:00,
2013-06-13 20:49:00,81.5,78.3,29.94,SW,225,2.2,2.2,90,0.00,,,0.01,261.0,meteobridge,2013-06-14 00:49:00,
2013-06-13 20:54:00,81.3,78.1,29.94,West,270,2.2,4.5,90,0.00,,,0.01,261.0,meteobridge,2013-06-14 00:54:00,
2013-06-13 21:00:00,81.3,78.4,29.95,NW,315,3.8,3.8,91,0.00,,,0.01,298.0,meteobridge,2013-06-14 01:00:00,
2013-06-13 21:05:00,81.1,78.3,29.95,West,270,0.7,3.8,91,0.00,,,0.01,298.0,meteobridge,2013-06-14 01:05:00,
2013-06-13 21:10:00,81.0,78.1,29.96,NW,315,1.6,1.6,91,0.00,,,0.01,298.0,meteobridge,2013-06-14 01:10:00,
2013-06-13 21:15:00,81.0,78.1,29.96,West,270,0.7,0.7,91,0.00,,,0.01,298.0,meteobridge,2013-06-14 01:15:00,
2013-06-13 21:20:00,80.8,78.3,29.96,West,270,3.1,3.1,92,0.00,,,0.01,298.0,meteobridge,2013-06-14 01:20:00,
2013-06-13 21:25:00,80.6,78.4,29.96,South,180,0.7,1.6,93,0.00,,,0.01,225.0,meteobridge,2013-06-14 01:25:00,
2013-06-13 21:31:00,80.2,78.1,29.96,South,180,0.7,0.7,93,0.00,,,0.01,225.0,meteobridge,2013-06-14 01:31:00,
2013-06-13 21:36:00,80.1,78.3,29.95,West,270,1.6,1.6,94,0.00,,,0.01,152.0,meteobridge,2013-06-14 01:36:00,
2013-06-13 21:41:00,80.1,78.4,29.96,West,270,0.0,0.7,95,0.00,,,0.01,152.0,meteobridge,2013-06-14 01:41:00,
2013-06-13 21:46:00,79.9,78.3,29.95,South,180,0.7,0.7,95,0.00,,,0.01,152.0,meteobridge,2013-06-14 01:46:00,
2013-06-13 21:51:00,79.7,78.4,29.96,SW,225,1.6,1.6,96,0.00,,,0.01,152.0,meteobridge,2013-06-14 01:51:00,
2013-06-13 21:56:00,79.5,78.6,29.96,West,270,0.7,1.6,97,0.00,,,0.01,152.0,meteobridge,2013-06-14 01:56:00,
2013-06-13 22:02:00,79.5,78.6,29.95,West,270,0.0,0.0,97,0.00,,,0.01,152.0,meteobridge,2013-06-14 02:02:00,
2013-06-13 22:07:00,79.3,78.4,29.95,SW,225,0.7,0.7,97,0.00,,,0.01,188.0,meteobridge,2013-06-14 02:07:00,
2013-06-13 22:12:00,79.2,78.6,29.95,SW,225,0.0,0.7,98,0.00,,,0.01,188.0,meteobridge,2013-06-14 02:12:00,
2013-06-13 22:17:00,79.2,78.8,29.96,West,270,0.0,0.0,99,0.00,,,0.01,188.0,meteobridge,2013-06-14 02:17:00,
2013-06-13 22:22:00,79.0,78.6,29.96,West,270,0.0,0.0,99,0.00,,,0.01,188.0,meteobridge,2013-06-14 02:22:00,
2013-06-13 22:27:00,79.0,78.6,29.95,West,270,0.7,0.7,99,0.00,,,0.01,188.0,meteobridge,2013-06-14 02:27:00,
2013-06-13 22:33:00,78.8,78.4,29.96,West,270,0.0,0.0,99,0.00,,,0.01,188.0,meteobridge,2013-06-14 02:33:00,
2013-06-13 22:38:00,78.8,78.4,29.96,West,270,0.0,0.0,99,0.00,,,0.01,188.0,meteobridge,2013-06-14 02:38:00,
2013-06-13 22:43:00,78.6,78.3,29.96,West,270,0.0,0.0,99,0.00,,,0.01,188.0,meteobridge,2013-06-14 02:43:00,
2013-06-13 22:48:00,78.4,78.1,29.96,SE,135,0.0,0.0,99,0.00,,,0.01,188.0,meteobridge,2013-06-14 02:48:00,
2013-06-13 22:53:00,78.4,78.1,29.97,SE,135,0.0,0.0,99,0.00,,,0.01,188.0,meteobridge,2013-06-14 02:53:00,
2013-06-13 22:59:00,78.4,78.1,29.97,SE,135,0.0,0.0,99,0.00,,,0.01,152.0,meteobridge,2013-06-14 02:59:00,
2013-06-13 23:04:00,78.3,77.9,29.96,SE,135,0.0,0.0,99,0.00,,,0.01,152.0,meteobridge,2013-06-14 03:04:00,
2013-06-13 23:09:00,78.3,77.9,29.97,SE,135,0.0,0.0,99,0.00,,,0.01,115.0,meteobridge,2013-06-14 03:09:00,
2013-06-13 23:14:00,78.3,77.9,29.97,NW,315,0.0,0.0,99,0.00,,,0.01,115.0,meteobridge,2013-06-14 03:14:00,
2013-06-13 23:19:00,78.3,77.9,29.98,NW,315,0.0,0.0,99,0.00,,,0.01,78.0,meteobridge,2013-06-14 03:19:00,
2013-06-13 23:24:00,78.3,77.9,29.98,West,270,0.7,0.7,99,0.00,,,0.01,78.0,meteobridge,2013-06-14 03:24:00,
2013-06-13 23:30:00,78.1,77.7,29.98,West,270,0.0,0.0,99,0.00,,,0.01,78.0,meteobridge,2013-06-14 03:30:00,
2013-06-13 23:35:00,77.9,77.5,29.97,West,270,0.0,0.0,99,0.00,,,0.01,78.0,meteobridge,2013-06-14 03:35:00,
2013-06-13 23:40:00,77.9,77.5,29.97,SW,225,0.7,0.7,99,0.00,,,0.01,78.0,meteobridge,2013-06-14 03:40:00,
2013-06-13 23:45:00,77.7,77.4,29.97,SW,225,0.0,0.0,99,0.00,,,0.01,78.0,meteobridge,2013-06-14 03:45:00,
2013-06-13 23:50:00,77.5,77.2,29.97,SW,225,0.0,0.0,99,0.00,,,0.01,78.0,meteobridge,2013-06-14 03:50:00,
2013-06-13 23:55:00,77.5,77.2,29.97,South,180,0.7,0.7,99,0.00,,,0.01,42.0,meteobridge,2013-06-14 03:55:00,